[[{"header":{"parameterUnit":"m.s-1","parameterCategory":1,"la1":30.2991,"la2":30.254,"lo1":-89.0895,"lo2":-89.0444,"dy":0.0017,"dx":0.0017,"nx":28,"ny":28,"refTime":"2025-04-03T09:00:00:Z","depth":0,"parameterNumber":2,"parameterNumberName":"U-component_of_WINDS"},"data":[0,0,0,0,0,0,0,0,0,0,0,0,0,0,0,0,0,0,0,0,0,0,0,0,0,0,0,0,0,0,0,0,0,0,0,0,0,0,0,0,0,0,0,0,0,0,0,0,0,0,0,0,0,0,0,0,0,0,-4.618,-4.6181,0,-4.6302,-4.6304,-4.6305,-4.6313,-4.6311,-4.631,-4.6308,-4.6434,-4.6439,-4.6443,0,0,0,0,0,0,0,0,0,0,0,0,0,-4.5952,-4.5956,-4.6179,-4.6181,-4.6182,-4.6302,-4.6304,-4.6306,-4.6313,-4.6311,-4.6309,-4.6308,-4.6433,-4.6438,-4.6444,0,0,0,0,0,0,0,0,0,0,0,0,0,-4.606,-4.5957,-4.6179,-4.6201,-4.6204,-4.6302,-4.6304,-4.6306,-4.6313,-4.6311,-4.6309,-4.6307,-4.6431,-4.6438,-4.6445,-4.653,0,0,-4.6466,-4.6469,0,0,0,0,0,0,0,0,-4.6054,-4.6069,-4.6196,-4.6199,-4.6203,-4.629,-4.627,-4.6381,-4.6314,-4.6272,-4.6308,-4.6306,-4.6388,-4.6398,-4.6426,-4.6536,-4.6541,-4.6467,-4.6471,-4.6474,-4.6476,0,0,0,0,0,0,0,-4.6046,-4.6063,-4.6228,-4.6198,-4.6202,-4.6204,-4.6217,-4.6291,-4.634,-4.6275,-4.6276,-4.629,-4.639,-4.6419,-4.6429,-4.6543,-4.6466,-4.6473,-4.6477,-4.648,-4.6729,-4.6731,0,0,0,0,0,0,-4.6035,-4.6057,-4.6224,-4.6232,-4.6122,-4.621,-4.6225,-4.6264,-4.6339,-4.6349,-4.6292,-4.629,-4.6408,-4.6421,-4.6433,-4.6537,-4.6474,-4.648,-4.6484,-4.6726,-4.6729,-4.6732,0,0,0,0,0,0,-4.603,-4.605,-4.6219,-4.6145,-4.6166,-4.6216,-4.626,-4.6268,-4.6297,-4.6352,-4.6361,-4.6313,-4.6407,-4.6424,-4.6506,-4.6542,-4.6483,-4.649,-4.6723,-4.6727,-4.6731,-4.6746,0,0,0,0,0,0,-4.6023,-4.6048,-4.608,-4.6145,-4.617,-4.6289,-4.6263,-4.6272,-4.6309,-4.6308,-4.6374,-4.6383,-4.6407,-4.6495,-4.6513,-4.655,-4.6495,-4.672,-4.6725,-4.6729,-4.6743,-4.675,-4.6756,0,0,0,0,0,-4.6015,-4.608,-4.6082,-4.6102,-4.6212,-4.6291,-4.6305,-4.6331,-4.6312,-4.6345,-4.6381,-4.6381,-4.6536,-4.6504,-4.6523,-4.6564,-4.6718,-4.6724,-4.6729,-4.674,-4.6749,-4.6756,0,0,0,0,0,0,-4.6018,-4.6089,-4.6092,-4.618,-4.6229,-4.6292,-4.6335,-4.634,-4.6396,-4.6392,-4.6422,-4.6437,-4.6518,-4.655,-4.6513,-4.665,-4.6625,-4.6634,-4.6626,-4.6635,-4.6642,-4.6632,-4.6501,0,0,0,0,0,-4.6029,-4.6087,-4.6146,-4.6218,-4.6242,-4.6284,-4.632,-4.6336,-4.6388,-4.6409,-4.645,-4.6502,-4.6562,-4.6601,-4.6659,-4.6748,-4.6762,-4.6786,-4.6793,-4.6798,-4.6805,-4.6854,-4.6865,-4.675,-4.675,-4.675,0,0,-4.6051,-4.6097,-4.6132,-4.6219,-4.626,-4.6319,-4.6302,-4.6366,-4.641,-4.6419,-4.6498,-4.6531,-4.659,-4.6676,-4.6716,-4.6705,-4.6841,-4.6805,-4.6809,-4.6813,-4.6861,-4.6872,-4.6882,-4.6753,-4.6753,-4.6752,0,0,-4.6123,-4.6164,-4.6228,-4.6269,-4.633,-4.6358,-4.6373,-4.6436,-4.6458,-4.6539,-4.6546,-4.66,-4.6703,-4.6745,-4.678,-4.6868,-4.6871,-4.6887,-4.6921,-4.6969,-4.6978,-4.6986,-4.7017,-4.7027,-4.6895,-4.6895,-4.6895,0,-4.6143,-4.6233,-4.626,-4.6324,-4.6362,-4.6373,-4.6438,-4.6477,-4.6554,-4.658,-4.6567,-4.6696,-4.6737,-4.6833,-4.6854,-4.6883,-4.6901,-4.6878,-4.6975,-4.6983,-4.6991,-4.702,-4.7032,-4.6896,-4.6896,-4.6896,-4.6896,0,-4.6254,-4.6316,-4.6361,-4.6435,-4.6478,-4.6543,-4.658,-4.662,-4.6633,-4.6662,-4.6744,-4.6794,-4.6862,-4.6887,-4.69,-4.6985,-4.6976,-4.6968,-4.6943,-4.7003,-4.7031,-4.7043,-4.6898,-4.6898,-4.6897,-4.6897,0,0,-4.6328,-4.6418,-4.6434,-4.6467,-4.6537,-4.6586,-4.6651,-4.6718,-4.6752,-4.6805,-4.686,-4.6948,-4.6941,-4.6981,-4.6999,-4.7041,-4.7107,-4.7029,-4.703,-4.704,-4.7203,-4.7206,-4.7219,-4.711,-4.7112,-4.7114,-4.7197,0,-4.6406,-4.6521,-4.6548,-4.6647,-4.6705,-4.6717,-4.6774,-4.6823,-4.6852,-4.6906,-4.6939,-4.7,-4.6988,-4.7012,-4.7054,-4.709,-4.714,-4.7085,-4.7161,-4.7163,-4.7143,-4.7234,-4.7238,-4.7314,-4.7209,-4.7211,-4.7212,0,-4.6512,-4.6568,-4.6672,-4.6734,-4.6759,-4.6809,-4.6873,-4.6925,-4.698,-4.6999,-4.7044,-4.7058,-4.7126,-4.7099,-4.7194,-4.7155,-4.7189,-4.7211,-4.7215,-4.7221,-4.7189,-4.7241,-4.7339,-4.7349,-4.723,-4.7228,-4.7227,0,-4.6554,-4.6656,-4.6731,-4.676,-4.6834,-4.6869,-4.6902,-4.6956,-4.6995,-4.7051,-4.7076,-4.714,-4.7174,-4.7223,-4.7254,-4.7232,-4.7346,-4.7322,-4.7363,-4.7362,-4.7384,-4.7382,-4.7487,-4.7409,-4.7409,-4.7408,-4.7408,0,-4.6637,-4.67,-4.6751,-4.6797,-4.6868,-4.6899,-4.6969,-4.7002,-4.705,-4.7103,-4.7119,-4.7168,-4.7207,-4.7262,-4.7287,-4.7361,-4.7377,-4.7393,-4.7399,-4.7391,-4.7388,-4.7411,-4.7406,-4.7411,-4.7411,-4.741,-4.741,0,-4.6695,-4.6732,-4.6814,-4.6878,-4.6896,-4.6945,-4.7,-4.7046,-4.7077,-4.7143,-4.7161,-4.7209,-4.7275,-4.7311,-4.7394,-4.741,-4.7492,-4.7496,-4.7473,-4.7475,-4.7513,-4.7509,-4.7635,-4.7653,-4.7564,-4.7565,-4.7566,0,-4.6744,-4.6793,-4.6862,-4.6899,-4.6932,-4.6991,-4.7031,-4.7064,-4.7105,-4.7172,-4.721,-4.7276,-4.7331,-4.7435,-4.7478,-4.7541,-4.7545,-4.7585,-4.7555,-4.7545,-4.7544,-4.754,-4.7545,-4.759,-4.759,-4.7591,-4.7592,0,-4.6828,-4.6844,-4.69,-4.6963,-4.701,-4.7061,-4.7112,-4.7141,-4.7183,-4.7228,-4.7295,-4.7338,-4.7422,-4.7488,-4.7555,-4.7589,-4.7597,-4.7601,-4.7614,-4.7605,-4.7589,-4.7597,-4.7486,-4.7598,-4.7597,-4.7597,-4.7596,-4.7596,-4.6883,-4.6926,-4.6982,-4.7044,-4.7086,-4.7133,-4.7179,-4.7215,-4.7272,-4.7343,-4.736,-4.743,-4.7486,-4.7576,-4.7612,-4.7668,-4.7661,-4.7679,-4.7684,-4.7687,-4.7688,-4.7582,-4.7681,-4.7681,-4.7681,-4.768,-4.768,0,-4.6966,-4.7002,-4.706,-4.713,-4.7179,-4.7184,-4.724,-4.7281,-4.7343,-4.7394,-4.7447,-4.7525,-4.7589,-4.7637,-4.7702,-4.7738,-4.7743,-4.7754,-4.775,-4.7758,-4.7691,-4.7673,-4.7748,-4.7748,-4.7748,-4.7748,-4.7748,-4.7748,-4.7015,-4.7089,-4.7111,-4.7206,-4.7243,-4.7311,-4.7343,-4.7387,-4.7428,-4.7513,-4.7567,-4.7598,-4.7648,-4.7717,-4.7776,-4.7789,-4.7811,-4.7821,-4.7834,-4.777,-4.7763,-4.7756,-4.7739,-4.7826,-4.7826,-4.7896,-4.7896,-4.7897]},{"header":{"parameterUnit":"m.s-1","parameterCategory":1,"la1":30.2991,"la2":30.254,"lo1":-89.0895,"lo2":-89.0444,"dy":0.0017,"dx":0.0017,"nx":28,"ny":28,"refTime":"2025-04-03T09:00:00:Z","depth":0,"parameterNumber":3,"parameterNumberName":"V-component_of_WINDS"},"data":[0,0,0,0,0,0,0,0,0,0,0,0,0,0,0,0,0,0,0,0,0,0,0,0,0,0,0,0,0,0,0,0,0,0,0,0,0,0,0,0,0,0,0,0,0,0,0,0,0,0,0,0,0,0,0,0,0,0,5.3203,5.3205,0,5.3334,5.3335,5.3337,5.332,5.3318,5.3316,5.3314,5.3445,5.345,5.3455,0,0,0,0,0,0,0,0,0,0,0,0,0,5.2939,5.2944,5.3203,5.3205,5.3207,5.3334,5.3336,5.3337,5.3321,5.3318,5.3315,5.3313,5.3443,5.3449,5.3456,0,0,0,0,0,0,0,0,0,0,0,0,0,5.306,5.2945,5.3203,5.3214,5.3216,5.3333,5.3336,5.3338,5.3321,5.3318,5.3315,5.3312,5.3441,5.3449,5.3457,5.3571,0,0,5.3482,5.3485,0,0,0,0,0,0,0,0,5.3053,5.307,5.3211,5.3213,5.3216,5.3308,5.329,5.3416,5.3322,5.3281,5.3314,5.331,5.3401,5.3413,5.3444,5.3577,5.3583,5.3482,5.3487,5.3491,5.3493,0,0,0,0,0,0,0,5.3045,5.3064,5.3255,5.3213,5.3216,5.3212,5.3225,5.3314,5.3357,5.3284,5.3284,5.3299,5.3402,5.3436,5.3447,5.3584,5.3482,5.3489,5.3494,5.3498,5.382,5.3824,0,0,0,0,0,0,5.3034,5.3057,5.3251,5.3259,5.3125,5.3219,5.3234,5.3281,5.3356,5.3365,5.3302,5.3298,5.3424,5.3437,5.3451,5.3592,5.3491,5.3498,5.3503,5.3817,5.3821,5.3825,0,0,0,0,0,0,5.3028,5.3051,5.3245,5.3158,5.3182,5.3227,5.328,5.3286,5.332,5.337,5.3377,5.3329,5.3422,5.344,5.3542,5.3596,5.3502,5.351,5.3813,5.3818,5.3823,5.3873,0,0,0,0,0,0,5.3021,5.3049,5.3093,5.3159,5.3187,5.3335,5.3283,5.329,5.3334,5.333,5.3397,5.3405,5.3421,5.353,5.355,5.3606,5.3516,5.3808,5.3815,5.3822,5.3867,5.388,5.3891,0,0,0,0,0,5.3011,5.3101,5.3096,5.3119,5.3243,5.3338,5.3354,5.3371,5.3338,5.3383,5.3416,5.3403,5.3587,5.3541,5.3563,5.3622,5.3805,5.3813,5.3821,5.3862,5.3877,5.3891,0,0,0,0,0,0,5.3039,5.3109,5.3104,5.3218,5.3272,5.3335,5.3392,5.3387,5.345,5.3444,5.3462,5.3477,5.3581,5.3611,5.3559,5.3738,5.3691,5.3704,5.3714,5.373,5.3741,5.3732,5.3523,0,0,0,0,0,5.3058,5.313,5.3187,5.3282,5.331,5.3346,5.3388,5.3397,5.3453,5.3476,5.3516,5.357,5.3641,5.3687,5.3754,5.3871,5.3886,5.3923,5.3935,5.3944,5.3956,5.4022,5.404,5.3852,5.3852,5.3852,0,0,5.3099,5.3146,5.319,5.3289,5.3332,5.3406,5.3365,5.3445,5.35,5.3487,5.3588,5.3619,5.3681,5.3792,5.3843,5.3821,5.4011,5.3955,5.3962,5.3969,5.4033,5.405,5.4066,5.3858,5.3857,5.3856,0,0,5.3211,5.3254,5.3339,5.3383,5.345,5.3474,5.3494,5.3558,5.3579,5.368,5.3673,5.3738,5.3859,5.3904,5.3943,5.4075,5.4066,5.4097,5.4159,5.4224,5.4238,5.4252,5.4301,5.4318,5.4108,5.4108,5.4108,0,5.3253,5.3365,5.3382,5.3464,5.3508,5.3502,5.3589,5.3631,5.3715,5.3746,5.372,5.3874,5.3914,5.4037,5.407,5.4101,5.4125,5.4089,5.4235,5.4248,5.4261,5.4308,5.4326,5.4111,5.4111,5.411,5.411,0,5.3414,5.3492,5.3552,5.3636,5.3687,5.3771,5.3801,5.3851,5.3856,5.3883,5.3986,5.4036,5.4115,5.4144,5.4148,5.4268,5.4253,5.4231,5.4184,5.4282,5.4327,5.4345,5.4116,5.4115,5.4114,5.4113,0,0,5.3546,5.3641,5.3663,5.3703,5.3776,5.3837,5.392,5.3999,5.4042,5.41,5.4172,5.4275,5.4256,5.43,5.431,5.4367,5.4471,5.4338,5.434,5.4363,5.4608,5.4625,5.4646,5.4465,5.4468,5.4471,5.4603,0,5.3667,5.3817,5.3836,5.3968,5.4042,5.4038,5.4111,5.4164,5.4192,5.4258,5.4287,5.4361,5.433,5.4357,5.4413,5.4446,5.4521,5.4437,5.4532,5.4535,5.4518,5.4669,5.4687,5.4809,5.4621,5.4624,5.4626,0,5.3828,5.3894,5.4034,5.4101,5.4132,5.4197,5.4272,5.4335,5.4396,5.4412,5.4463,5.4466,5.4553,5.4502,5.4623,5.4566,5.4606,5.4628,5.4634,5.4644,5.4587,5.4685,5.4848,5.4867,5.4653,5.4651,5.4649,0,5.3914,5.4037,5.4137,5.4171,5.425,5.4296,5.4331,5.4389,5.4436,5.4501,5.4532,5.4605,5.4646,5.4702,5.4726,5.4687,5.4846,5.4797,5.4862,5.4862,5.4897,5.4894,5.5071,5.492,5.492,5.4919,5.4919,0,5.4048,5.4134,5.4177,5.4239,5.4336,5.4358,5.4453,5.4486,5.4538,5.4607,5.4607,5.4671,5.4697,5.4766,5.4784,5.4882,5.49,5.4916,5.492,5.4917,5.4915,5.4944,5.4937,5.4924,5.4923,5.4922,5.4921,0,5.4159,5.4192,5.4302,5.4368,5.4387,5.4456,5.4513,5.4574,5.4601,5.4688,5.4709,5.4752,5.4833,5.4862,5.4959,5.4972,5.5087,5.5083,5.5067,5.5068,5.5133,5.5127,5.5335,5.5364,5.5193,5.5194,5.5196,0,5.4244,5.431,5.4385,5.4432,5.4469,5.4544,5.4593,5.4616,5.4667,5.4742,5.4794,5.4875,5.4941,5.507,5.5109,5.5185,5.5183,5.5251,5.5195,5.519,5.5187,5.5183,5.5191,5.5262,5.5264,5.5265,5.5266,0,5.439,5.4404,5.4474,5.4551,5.4609,5.4671,5.473,5.4768,5.4801,5.4857,5.4941,5.4992,5.5093,5.5174,5.5251,5.5287,5.5283,5.5284,5.5303,5.5302,5.5291,5.53,5.5097,5.5279,5.5278,5.5277,5.5276,5.5276,5.4492,5.4553,5.4616,5.4695,5.4742,5.4798,5.4859,5.4895,5.4966,5.5051,5.506,5.5151,5.5211,5.5315,5.5355,5.5426,5.5407,5.5435,5.5442,5.5449,5.5455,5.5278,5.5439,5.5439,5.5439,5.5438,5.5438,0,5.4641,5.4682,5.4754,5.4839,5.4901,5.4893,5.4959,5.5012,5.5092,5.5149,5.5215,5.5312,5.5391,5.5437,5.5516,5.5564,5.5564,5.5584,5.5582,5.559,5.5466,5.5442,5.5583,5.5583,5.5583,5.5583,5.5583,5.5583,5.4726,5.4828,5.4849,5.4976,5.5016,5.5106,5.5144,5.5196,5.5243,5.5352,5.5418,5.5448,5.5501,5.5585,5.5657,5.5668,5.5698,5.572,5.573,5.5613,5.5599,5.5584,5.5562,5.5726,5.5726,5.5849,5.585,5.5851]}]]